World > North America > United States > Vermont

Bomoseen, Vermont Regional Weather

Lat: 43.64N, Lon: 73.2W
Wx Zone: VTZ011Web Search

Ads allow us to feed your daily addiction for the world's greatest weather information. We're determined to offer quality sponsors, in the least annoying way possible.

Feedback


°F Click to change Bomoseen hourly weather to Imperial units.Click to change Bomoseen hourly weather to Metric units. °C
Bomoseen Weather Map
UTC Time: 4/16/2021, 14:21
Your Time:

Bomoseen, VT Regional Weather

Expires:202104161400;;641363
ASUS41 KBTV 161311
RWRBTV
VERMONT REGIONAL WEATHER ROUNDUP
NATIONAL WEATHER SERVICE BURLINGTON VT
900 AM EDT FRI APR 16 2021

NOTE: "FAIR" INDICATES FEW OR NO CLOUDS BELOW 12,000 FEET WITH NO 
SIGNIFICANT WEATHER AND/OR OBSTRUCTIONS TO VISIBILITY.

* THESE REPORTS ARE NOT UNDER NWS QUALITY CONTROL AND/OR DO NOT
  REPORT WEATHER SUCH AS PRECIPITATION AND FOG.


VTZ001>019-161400-
_____VERMONT_
  
CITY           SKY/WX    TMP DP  RH WIND       PRES   REMARKS
BURLINGTON     LGT RAIN  39  35  86 N7        29.72S                  
MONTPELIER     LGT SNOW  32  32 100 NE3       29.71F VSB 1            
MORRISVILLE    LGT SNOW  33  32  96 N6        29.72F VSB 3/4 WCI  28  
ST. JOHNSBURY*   N/A     33  32  96 MISG      29.69F                  
LYNDONVILLE*   LGT SNOW  32  32  99 N10       29.71F VSB 3/4 WCI  24  
MIDDLEBURY*    RAIN      36  35  96 N5        29.68F                  
RUTLAND*       LGT RAIN  35  35 100 CALM      29.66F                  
SPRINGFIELD    LGT SNOW  33  29  85 NE3       29.66S FOG              
HIGHGATE*      LGT RAIN  39  36  90 NE6       29.75S                  
NEWPORT*       LGT SNOW  33  31  94 N7        29.74F WCI  26          
LAKE EDEN*       N/A     39 N/A N/A NE3         N/A                   

_____LAKE CHAMPLAIN_
  
CITY           SKY/WX    TMP DP  RH WIND       PRES   REMARKS
COLCHESTER RF*   N/A     39  36  87 NE12        N/A  WCI  32          
DIAMOND ISL*     N/A     37  36  93 NW15        N/A  WCI  28          

$$


SKY/WX - Weather  TMP - Temperature  DP - Dew Point  RH - Relative Humidity
WIND - Wind Direction/Speed PRES - Barometric Pressure VSB - Visibility
WCI - Wind Chill Index E13G22 Wind - East Wind 13 mph/Gusts of 22 mph